www.pogodaiklimat.ru

Погода и климат >> Архив погоды >> Узбекистан >> Наманган


ПОГОДА в Намангане

  • Прогноз погоды в Намангане
  • Монитор погоды в Намангане

АРХИВ ПОГОДЫ в Намангане

Время (UTC), дата Ветер
(напр.,м/с)
 
Видим.   Явления Облачность Т
(С)
Тd
(С)
f
(%)
Тe
(С)
Тes
(С)
Комфортность P
(гПа)
Po
(гПа)
Тmin
(С)
Tmax
(С)
R
(мм)
R24
(мм)
S
(см)
09 10.09 В 3 10 км 3/3 1500 м
[Cb calv]
+21.6 +4.8 33 +22 +29 комфорт 1021.6 967.4
12 10.09 ЮВ 2 10 км 3/3 1500 м
[Cb calv]
+22.6 +1.7 25 +22 +23 комфорт 1021.4 967.4
15 10.09 С 2 10 км 3/3 1500 м
[Cb calv]
+18.5 +8.0 50 +19 +19 1022.4 967.5 +23.5
18 10.09 С 4 10 км 3/3 1500 м
[Cb calv]
+14.8 +7.3 61 +14 +14 1021.3 965.9 +23.5
21 10.09 С 3 10 км 3/3 1500 м
[Cb calv]
+14.0 +6.5 61 +13 +13 1020.7 965.1
00 11.09 С 2 10 км ясно +12.3 +6.8 69 +11 +11 1021.2 965.3 +1.4
03 11.09 СВ 2 10 км ясно +16.0 +5.9 51 +16 +19 1021.4 966.2
06 11.09 ЮВ 3 10 км ясно +21.6 +1.5 26 +21 +32 комфорт 1021.2 967.0 +11.3
09 11.09 В 1 10 км ясно +24.5 +0.2 20 +23 +36 комфорт 1019.5 965.8
12 11.09 ЮЗ 1 10 км ясно +24.8 -0.2 19 +23 +25 комфорт 1019.1 965.5
15 11.09 С 1 10 км ясно +17.2 +4.0 41 +18 +18 1020.9 966.0 +25.8
18 11.09 СЗ 3 10 км 3/3
[Cb calv]
+16.0 +7.8 58 +16 +16 1021.2 966.0 +25.8
21 11.09 СЗ 2 10 км 6/0
[Ac cuf]
+14.8 +6.4 57 +15 +15 1020.9 965.5
00 12.09 С 2 10 км 4/0
[Ac cuf]
+12.2 +4.8 61 +11 +11 1021.5 965.5
03 12.09 штиль 0 10 км ясно +16.8 +5.1 46 +17 +21 1020.5 965.5
06 12.09 ЮВ 2 10 км ясно +22.6 +4.6 31 +23 +35 комфорт 1018.6 964.7 +11.2
09 12.09 ЮВ 2 10 км 3/0
[Ci fib]
+26.7 +4.1 23 +25 +36 комфорт 1015.8 962.7
12 12.09 ЮЗ 2 10 км 4/0
[Ci fib]
+25.8 +4.6 26 +25 +26 комфорт 1015.1 962.0
15 12.09 С 2 10 км 6/0
[Ac cuf]
+18.7 +8.0 50 +20 +20 1017.0 962.5 +27.7
18 12.09 СЗ 4 10 км 6/0
[Ac cuf]
+16.5 +8.4 59 +16 +16 1017.0 962.1 +27.7
21 12.09 С 4 10 км 6/0
[Ac cuf]
+15.0 +6.4 56 +14 +14 1017.3 962.1
00 13.09 С 2 10 км ясно +14.0 +6.2 59 +14 +14 1017.5 962.1 +1.3
03 13.09 С 1 10 км ясно +17.0 +6.7 51 +18 +21 1017.7 962.8
06 13.09 ЮВ 2 10 км 4/0
[Ci fib]
+24.0 +6.1 32 +24 +35 комфорт 1016.7 963.2 +13.0
09 13.09 Ю 2 10 км 4/0
[Ci fib]
+26.8 +4.0 23 +26 +36 жарко 1014.6 961.6
12 13.09 ЮЗ 1 10 км 4/0
[Ci fib]
+27.7 +3.6 21 +26 +28 жарко 1013.7 960.9
15 13.09 СЗ 2 10 км 3/0
[Ac cuf]
+20.8 +8.2 44 +23 +23 комфорт 1015.6 961.6 +28.7
18 13.09 СЗ 2 10 км ясно +17.4 +8.9 57 +18 +18 1016.7 962.0 +28.7
21 13.09 С 3 10 км 8/0
[Ac lent]
+17.2 +7.0 51 +17 +17 1016.3 961.6
00 14.09 С 4 10 км 9/0
[Ac lent]
+16.6 +6.7 52 +16 +16 1016.1 961.3
03 14.09 З 1 10 км 4/0
[Ac cuf]
+18.5 +8.9 54 +20 +22 1016.5 962.0
06 14.09 ЮВ 1 10 км 9/0
[Ac cuf]
+25.6 +5.8 28 +25 +30 комфорт 1015.0 961.8 +15.6
09 14.09 ЮЗ 1 10 км 3/0
[Ci fib]
+29.1 +1.5 17 +27 +39 жарко 1012.0 959.5
12 14.09 ЮЗ 2 10 км 3/0
[Ci fib]
+28.6 +5.1 22 +27 +29 жарко 1011.1 958.6
15 14.09 С 3 10 км 5/0
[Ac cuf]
+21.5 +6.8 39 +22 +22 комфорт 1013.4 959.6 +30.2
18 14.09 С 2 10 км 9/0
[Ac As]
+19.2 +10.0 55 +21 +21 комфорт 1013.5 959.3 +30.2
21 14.09 В 1 10 км 9/0
[Ac As]
+19.7 +9.5 52 +22 +22 комфорт 1013.4 959.3
00 15.09 С 2 10 км 9/4 1500 м
[Cb calv Ac As]
+18.7 +9.4 55 +20 +20 1013.9 959.6
03 15.09 СЗ 1 10 км 9/0
[Ac As]
+19.5 +9.3 52 +22 +23 комфорт 1015.4 961.2
06 15.09 Ю 3 10 км 10/0
[Ac As]
+20.5 +11.9 58 +23 +26 комфорт 1016.7 962.6 +17.7
09 15.09 С 2 10 км {ливн. осадки} 9/9 1500 м
[Cb cap]
+22.2 +11.1 49 +24 +25 комфорт 1016.7 962.9
12 15.09 С 2 10 км {ливн. осадки} 9/9 1500 м
[Cb cap]
+22.2 +11.1 49 +24 +24 комфорт 1016.7 962.9
15 15.09 С 2 10 км 9/0
[Ac cuf]
+20.0 +9.3 50 +22 +22 комфорт 1018.8 964.5 +24.4
18 15.09 С 1 10 км 10/0
[Ac As]
+19.6 -0 -0 1018.5 964.2 +24.4 0.0
21 15.09 С 3 10 км 10/0
[Ac As]
+17.2 +10.6 65 +17 +17 1019.0 964.2
00 16.09 СЗ 3 10 км 10/0
[Ac As]
+15.8 +8.8 63 +15 +15 1018.9 964.7
03 16.09 С 1 10 км 4/0
[Ac lent]
+18.1 +8.0 52 +19 +21 1020.3 965.6
06 16.09 В 3 10 км ясно +23.3 +7.7 37 +24 +34 комфорт 1018.5 964.8 +15.0
09 16.09 В 2 10 км ясно +25.7 +4.8 26 +25 +35 комфорт 1016.3 963.0
12 16.09 ЮЗ 1 10 км 9/0
[Ci fib]
+26.3 +3.6 23 +25 +26 комфорт 1016.2 963.0
15 16.09 штиль 0 10 км 9/0
[Ci fib]
+21.0 +8.9 46 +22 +22 комфорт 1018.0 963.8 +27.3
18 16.09 С 1 10 км 5/0
[Ac cuf]
+17.3 +8.8 57 +18 +18 1019.2 964.4 +27.3
21 16.09 С 2 10 км 8/0
[Ac cuf]
+16.0 +8.4 61 +16 +16 1019.9 964.7
00 17.09 С 2 10 км 8/0
[Ac cuf]
+15.4 +6.8 56 +15 +15 1020.4 965.1
03 17.09 СВ 3 10 км ясно +18.0 +6.1 46 +18 +20 1021.2 966.4

 

Местоположение метеостанции Наманган (Намаганская область, Узбекистан): широта 40.98 долгота 71.58 высота над уровнем моря 474 м.

В архиве по умолчанию представлена погода в Намангане за последнюю неделю. Архивные данные за месяц целиком и за предыдущие месяцы, начиная с января 2011 года, Вы можете получить, выбрав интересующий диапазон дат из раскрывающегося списка и нажав кнопку "Ввод!".


*Определитесь, кто Вы:
робот инопланетянин человек

Внимание! Время в таблицах - всемирное. Для получения местного времени необходимо прибавить поправку, которая равна 5 ч.

Смотрите также архив погоды в соседних городах и на ближайших метеорологических станциях:

Погода в Юбилейной (Андижанская область, Узбекистан) (26 км)
Погода в Папе (Намаганская область, Узбекистан) (40 км)
Погода в Бозе (Андижанская область, Узбекистан) (44 км)
Погода в Куве (Ферганская область, Узбекистан) (65 км)
Погода в Пача-Ате (Джалал-Абадская область, Киргизия) (67 км)
Погода в Андижан (Андижанская область, Узбекистан) (69 км)
Погода в Фергане (Ферганская область, Узбекистан) (69 км)
Погода в Коканде (Ферганская область, Узбекистан) (71 км)
Погода в Камчике (Ташкентская область, Узбекистан) (92 км)
Погода в Чаткале (Джалал-Абадская область, Киргизия) (104 км)

Пояснения к столбцам:

Ветер - указаны скорость ветра в м/с - средняя за 10 мин, порывы в срок и между сроками (в фигурных скобках) и направление, откуда дует ветер: С - северный, СВ - северо-восточный, В - восточный, ЮВ - юго-восточный, Ю - южный, ЮЗ - юго-западный, З - западный, СЗ - северо-западный.
Видимость - горизонтальная дальность видимости в метрах или километрах. При видимости от 1 до 10 км при отсутствии осадков обычно наблюдается дымка, при ухудшении видимости до 1 км и менее - туман. В сухую погоду видимость может ухудшаться дымом, пылью или мглою.
Явления - указаны атмосферные явления, наблюдавшиеся в срок или в последний час перед сроком; фигурными скобками обозначены явления, наблюдавшиеся между сроками (за 1-3 часа до срока); квадратными скобками обозначены град или гололедные отложения с указанием их диаметра в мм.
Облачность - указаны через наклонную черту общая и нижняя облачность в баллах и высота нижней границы облаков в метрах; квадратными скобками обозначены формы облаков: Ci - перистые, Cs - перисто-слоистые, Cc - перисто-кучевые, Ac - высококучевые, As - высокослоистые, Sc - слоисто-кучевые, Ns - слоисто-дождевые, Cu - кучевые, Cb - кучево-дождевые. Подробнее классификацию облаков см. в Атласе облаков (PDF).
T - Температура воздуха - температура, измеренная на высоте 2 м над землей.
Td - Температура точки росы - температура, при понижении до которой содержащийся в воздухе водяной пар достигнет насыщения.
f - Относительная влажность воздуха - влажноcть воздуха, измеренная на высоте 2 м над землей.
Te - Эффективная температура - температура, которую ощущает одетый по сезону человек в тени. Характеристика душности погоды. При расчете учитывается влияние влажности воздуха и скорости ветра на теплоощущения человека.
Tes - Эффективная температура на солнце - температура, которую ощущает человек, с поправкой на солнечный нагрев. Характеристика знойности погоды. Зависит от высоты солнца над горизонтом, облачности и скорости ветра. Ночью, в пасмурную погоду, а также при ветре 12 м/с и более поправка равна нулю.
P - Атмосферное давление - приведенное к уровню моря атмосферное давление.
Po - Атмосферное давление - измеренное на уровне метеостанции атмосферное давление.
Tmin - Минимальная температура - минимум температуры воздуха на высоте 2 м над землей.
Tmax - Максимальная температура - максимум температуры воздуха на высоте 2 м над землей.
R - Количество осадков - Количество выпавших осадков за период времени, мм. При наведении курсора мыши на число - период времени, за который выпало указанное количество осадков.
R24 - Количество осадков - Количество выпавших осадков за 24 часа, мм.
S - Снежный покров - Высота снежного покрова, см. При наведении курсора мыши на число - состояние снежного покрова и степень покрытия местности в баллах.